Location: ????? ????
(37.9717°N, 23.4051°E)
Time: 04:17:34
(UTC+00:00)

YAOGAN 1 - Pass Details

Date: 18 April 2024
Orbit: 612 x 614 km, 97.8° (Epoch: 23 May)

Event Time Altitude Azimuth Distance (km) Brightness Sun altitude
Rises 17:28:06 0° 176° (S) 2,867 5.7 -5.1°
Reaches altitude 10° 17:30:18 10° 180° (S) 1,967 5.0 -5.5°
Maximum altitude 17:34:31 57° 260° (W) 724 3.3 -6.3°
Drops below altitude 10° 17:38:46 10° 339° (NNW) 1,981 5.8 -7.1°
Sets 17:40:59 0° 344° (NNW) 2,891 6.6 -7.5°
